{"data":{"norad_id":47281,"epoch":"2026-05-25T01:45:12.777984Z","epoch_age_seconds":58836,"freshness":"FRESH","line1":"1 47281U 20100Z   26145.07306456 -.00000390  00000+0 -11207-2 0  9990","line2":"2 47281  87.8951 355.2668 0001547  78.8083 281.3219 13.12442557261704","mean_motion":13.12442557,"eccentricity":0.0001547,"inclination_deg":87.8951,"raan_deg":355.2668,"arg_perigee_deg":78.8083,"mean_anomaly_deg":281.3219,"bstar":-0.0011207,"rev_number":26170,"period_min":109.71908769033,"perigee_km":1212.5505383602,"apogee_km":1214.8994604628,"semimajor_km":7591.8619994115,"source":"CELESTRAK","updated_at":"2026-05-25T13:38:22.384279Z"}}